Weather History for Nashua, NH

Change the Weather History Date:

Friday, July 19, 2013

  Actual Average Record
Temperature  
Mean Temperature 84 °F -  
Max Temperature 97 °F 84 °F 97 °F (2013)
Min Temperature 72 °F 60 °F 45 °F (1971)
Cooling Degree Days 20    
Growing Degree Days 34 (Base 50)    
Moisture  
Dew Point 72 °F    
Average Humidity 65    
Maximum Humidity 93    
Minimum Humidity 41    
Precipitation  
Precipitation 0.00 in - - ()
Sea Level Pressure  
Sea Level Pressure 30.53 in    
Wind  
Wind Speed 2 mph (West)    
Max Wind Speed 10 mph    
Max Gust Speed 18 mph    
Visibility 10 miles    
Events      
Averages and records for this station are not official NWS values.
T = Trace of Precipitation, MM = Missing Value Source: NWS Daily Summary

Daily Weather History Graph

Daily Weather History Graph

Search for Another Location

Airport:

Trip Planner

Search our weather history database for the weather conditions in past years. The results will help you decide how hot, cold, wet, or windy it might be!

Date:

Astronomy

Jul. 19, 2013 Rise Set
Actual Time 5:24 AM EDT 8:19 PM EDT
Civil Twilight 4:51 AM EDT 8:52 PM EDT
Nautical Twilight 4:08 AM EDT 9:35 PM EDT
Astronomical Twilight 3:19 AM EDT 10:24 PM EDT
Moon 5:18 PM EDT (7/19) 2:03 AM EDT (7/19)
Length of Visible Light 16h 01m
Length of Day
14h 54m
Waxing Gibbous, 86% of the Moon is Illuminated
Jul 19
Waxing Gibbous
Jul 22
Full
Jul 29
Last Quarter
Aug 6
New
Aug 14
First Quarter

Hourly Weather History & Observations

Time (EDT) Temp. Heat Index Dew Point Humidity Pressure Visibility Wind Dir Wind Speed Gust Speed Precip Events Conditions
12:51 AM 74.8 °F - 70.9 °F 87% 30.65 in 10.0 mi Calm Calm - N/A   Clear
1:51 AM 73.9 °F - 70.9 °F 90% 30.65 in 10.0 mi Calm Calm - N/A   Clear
2:51 AM 73.9 °F - 70.9 °F 90% 30.63 in 10.0 mi Calm Calm - N/A   Clear
3:51 AM 73.9 °F - 70.9 °F 90% 30.63 in 10.0 mi Calm Calm - N/A   Clear
4:51 AM 72.9 °F - 70.9 °F 93% 30.61 in 10.0 mi Calm Calm - N/A   Clear
5:51 AM 73.9 °F - 70.9 °F 90% 30.61 in 10.0 mi Calm Calm - N/A   Clear
6:51 AM 79.0 °F - 70.9 °F 76% 30.60 in 10.0 mi Calm Calm - N/A   Clear
7:51 AM 81.0 °F 85.2 °F 72.0 °F 74% 30.60 in 10.0 mi Calm Calm - N/A   Clear
8:51 AM 86.0 °F 93.0 °F 72.9 °F 65% 30.59 in 10.0 mi Calm Calm - N/A   Clear
9:51 AM 90.0 °F 97.9 °F 72.9 °F 57% 30.58 in 10.0 mi Calm Calm - N/A   Clear
10:51 AM 92.8 °F 99.7 °F 70.9 °F 49% 30.56 in 10.0 mi Calm Calm - N/A   Clear
11:51 AM 93.9 °F 99.1 °F 68.9 °F 44% 30.55 in 10.0 mi West 9.2 mph - N/A   Clear
12:51 PM 95.9 °F 101.3 °F 68.9 °F 41% 30.52 in 10.0 mi Variable 6.9 mph - N/A   Clear
1:51 PM 97.0 °F 103.5 °F 70.0 °F 41% 30.49 in 10.0 mi West 10.4 mph - N/A   Clear
2:51 PM 97.0 °F 104.8 °F 70.9 °F 43% 30.47 in 10.0 mi West 8.1 mph 15.0 mph N/A   Scattered Clouds
3:51 PM 97.0 °F 104.8 °F 70.9 °F 43% 30.44 in 10.0 mi West 3.5 mph 18.4 mph N/A   Scattered Clouds
4:51 PM 95.9 °F 103.2 °F 70.9 °F 44% 30.42 in 10.0 mi WSW 9.2 mph 18.4 mph N/A   Scattered Clouds
5:51 PM 92.8 °F 100.3 °F 72.0 °F 50% 30.42 in 10.0 mi West 6.9 mph 12.7 mph N/A   Scattered Clouds
6:51 PM 92.8 °F 101.5 °F 72.9 °F 52% 30.41 in 10.0 mi West 4.6 mph 11.5 mph N/A   Partly Cloudy
7:51 PM 90.0 °F 99.0 °F 73.9 °F 59% 30.43 in 10.0 mi Variable 4.6 mph - N/A   Clear
8:51 PM 86.9 °F 95.9 °F 74.8 °F 67% 30.44 in 10.0 mi Calm Calm - N/A   Clear
9:51 PM 86.0 °F 94.6 °F 74.8 °F 69% 30.44 in 10.0 mi Calm Calm - N/A   Clear
10:51 PM 84.9 °F 92.1 °F 73.9 °F 69% 30.45 in 10.0 mi Variable 3.5 mph - N/A   Clear
11:51 PM 83.8 °F 90.8 °F 73.9 °F 72% 30.45 in 10.0 mi Variable 3.5 mph - N/A   Clear